Location: Erlenbrunn
(49.1717°N, 7.6142°E)
Time: 09:04:38
(UTC+00:00)

Cosmos 1980 - Pass Details

Date: 25 November 2020
Orbit: 841 x 846 km, 71.0° (Epoch: 25 January)

Event Time Altitude Azimuth Distance (km) Brightness Sun altitude
Rises 16:01:57 0° 178° (S) 3,392 7.2 -4.3°
Reaches altitude 10° 16:04:33 10° 170° (S) 2,462 6.4 -4.6°
Maximum altitude 16:09:37 35° 106° (ESE) 1,341 4.4 -5.4°
Drops below altitude 10° 16:14:42 10° 43° (NE) 2,477 5.6 -6.1°
Enters shadow 16:16:17 - 37° (NE) 3,031 6.0 -6.4°
